Key West, FL

7:28 PM EDT on May 26, 2017 (GMT -0400)
Key West International

Weather History for KEYW - February, 2012

Change the Weather History Date:

Saturday, February 25, 2012

  Actual Average Record
Temperature  
Mean Temperature 77 °F 72 °F  
Max Temperature 81 °F 77 °F 87 °F (1874)
Min Temperature 73 °F 67 °F 51 °F (1989)
Degree Days  
Heating Degree Days 0 0  
Month to date heating degree days 5 19  
Since 1 July heating degree days 28 70  
Cooling Degree Days 12 7  
Month to date cooling degree days 218 162  
Year to date cooling degree days 426 327  
Growing Degree Days 26 (Base 50)    
Moisture  
Dew Point 72 °F    
Average Humidity 84    
Maximum Humidity 94    
Minimum Humidity 74    
Precipitation  
Precipitation 0.00 in 0.06 in 1.92 in (2004)
Month to date precipitation 5.21 1.30  
Year to date precipitation 5.99 3.34  
Snow  
Snow 0.00 in - - ()
Month to date snowfall 0.0  
Since 1 July snowfall 0.0  
Snow Depth 0.00 in    
Sea Level Pressure  
Sea Level Pressure 30.10 in    
Wind  
Wind Speed 5 mph (SE)    
Max Wind Speed 14 mph    
Max Gust Speed 23 mph    
Visibility 10 miles    
Events      
T = Trace of Precipitation, MM = Missing Value Source: NWS Daily Summary

Daily Weather History Graph

Daily Weather History Graph

Search for Another Location

Airport or City:

Trip Planner

Search our weather history database for the weather conditions in past years. The results will help you decide how hot, cold, wet, or windy it might be!

Date:

Astronomy

Feb. 25, 2012 Rise Set
Actual Time 6:53 AM EST 6:27 PM EST
Civil Twilight 6:30 AM EST 6:50 PM EST
Nautical Twilight 6:03 AM EST 7:16 PM EST
Astronomical Twilight 5:37 AM EST 7:43 PM EST
Moon 8:47 AM EST (2/25) 9:52 PM EST (2/25)
Length of Visible Light 12h 19m
Length of Day
11h 33m
Waxing Crescent, 13% of the Moon is Illuminated
Feb 25
Waxing Crescent
Feb 29
First Quarter
Mar 8
Full
Mar 14
Last Quarter
Mar 22
New

Hourly Weather History & Observations

Time (EST) Temp. Heat Index Dew Point Humidity Pressure Visibility Wind Dir Wind Speed Gust Speed Precip Events Conditions
12:53 AM 75.9 °F - 73.9 °F 94% 30.06 in 10.0 mi SE 6.9 mph - N/A   Partly Cloudy
1:53 AM 75.9 °F - 73.9 °F 94% 30.04 in 10.0 mi SE 5.8 mph - N/A   Clear
2:53 AM 75.9 °F - 73.0 °F 91% 30.04 in 10.0 mi SSE 6.9 mph - N/A   Scattered Clouds
3:53 AM 75.9 °F - 73.0 °F 91% 30.04 in 10.0 mi SSE 6.9 mph - N/A   Mostly Cloudy
4:53 AM 75.0 °F - 72.0 °F 90% 30.05 in 10.0 mi Calm Calm - N/A   Partly Cloudy
5:53 AM 73.9 °F - 72.0 °F 93% 30.07 in 10.0 mi Calm Calm - N/A   Mostly Cloudy
6:53 AM 73.0 °F - 72.0 °F 96% 30.09 in 10.0 mi Calm Calm - N/A   Clear
7:53 AM 75.9 °F - 73.9 °F 94% 30.11 in 10.0 mi Calm Calm - N/A   Partly Cloudy
8:53 AM 77.0 °F - 73.0 °F 88% 30.13 in 10.0 mi SSE 4.6 mph - N/A   Scattered Clouds
9:53 AM 78.1 °F - 73.0 °F 84% 30.14 in 10.0 mi ESE 4.6 mph - N/A   Partly Cloudy
10:53 AM 79.0 °F - 73.9 °F 84% 30.15 in 10.0 mi ESE 5.8 mph - N/A   Clear
11:53 AM 79.0 °F - 73.0 °F 82% 30.14 in 10.0 mi SE 5.8 mph - N/A   Clear
12:53 PM 79.0 °F - 73.9 °F 84% 30.12 in 10.0 mi SSE 5.8 mph - N/A   Clear
1:53 PM 80.1 °F 84.2 °F 73.0 °F 79% 30.10 in 10.0 mi Variable 5.8 mph - N/A   Clear
2:53 PM 80.1 °F 84.2 °F 73.0 °F 79% 30.07 in 10.0 mi SSE 9.2 mph - N/A   Clear
3:53 PM 80.1 °F 83.8 °F 72.0 °F 76% 30.06 in 10.0 mi SSE 10.4 mph - N/A   Clear
4:53 PM 79.0 °F - 71.1 °F 77% 30.07 in 10.0 mi SSE 6.9 mph - N/A   Clear
5:53 PM 79.0 °F - 71.1 °F 77% 30.09 in 10.0 mi SSE 4.6 mph - N/A   Clear
6:53 PM 78.1 °F - 71.1 °F 79% 30.09 in 10.0 mi SSE 5.8 mph - N/A   Clear
7:53 PM 77.0 °F - 71.1 °F 82% 30.11 in 10.0 mi East 3.5 mph - N/A   Partly Cloudy
8:53 PM 77.0 °F - 71.1 °F 82% 30.13 in 10.0 mi East 4.6 mph - N/A   Mostly Cloudy
9:53 PM 77.0 °F - 71.1 °F 82% 30.13 in 10.0 mi Calm Calm - N/A   Scattered Clouds
10:53 PM 77.0 °F - 70.0 °F 79% 30.14 in 10.0 mi NE 8.1 mph - N/A   Overcast
11:20 PM 75.2 °F - 71.6 °F 89% 30.14 in 10.0 mi NE 9.2 mph 17.3 mph N/A   Mostly Cloudy
11:53 PM 73.9 °F - 70.0 °F 87% 30.15 in 10.0 mi NE 12.7 mph 20.7 mph N/A   Mostly Cloudy